TimeMST,TemperatureF,Dew PointF,Humidity,Sea Level PressureIn,VisibilityMPH,Wind Direction,Wind SpeedMPH,Gust SpeedMPH,PrecipitationIn,Events,Conditions,WindDirDegrees,DateUTC
12:53 AM,24.1,18.0,77,29.95,10.0,West,3.5,-,N/A,,Clear,280,2013-03-08 07:53:00
1:53 AM,21.9,16.0,78,29.94,10.0,SW,3.5,-,N/A,,Clear,230,2013-03-08 08:53:00
2:53 AM,23.0,16.0,74,29.91,10.0,Calm,Calm,-,N/A,,Clear,0,2013-03-08 09:53:00
3:53 AM,21.0,16.0,81,29.92,10.0,Calm,Calm,-,N/A,,Clear,0,2013-03-08 10:53:00
4:53 AM,19.9,14.0,78,29.94,10.0,Calm,Calm,-,N/A,,Clear,0,2013-03-08 11:53:00
5:53 AM,21.9,15.1,75,29.96,10.0,Calm,Calm,-,N/A,,Clear,0,2013-03-08 12:53:00
6:53 AM,21.9,16.0,78,29.98,10.0,Calm,Calm,-,N/A,,Clear,0,2013-03-08 13:53:00
7:53 AM,24.1,18.0,77,29.98,10.0,Calm,Calm,-,N/A,,Clear,0,2013-03-08 14:53:00
8:53 AM,30.9,21.0,67,29.96,10.0,SSW,3.5,-,N/A,,Clear,210,2013-03-08 15:53:00
9:53 AM,37.9,19.9,48,29.92,10.0,Calm,Calm,-,N/A,,Clear,0,2013-03-08 16:53:00
10:53 AM,41.0,21.9,47,29.89,10.0,WSW,4.6,-,N/A,,Partly Cloudy,240,2013-03-08 17:53:00
11:53 AM,44.1,23.0,43,29.84,10.0,Calm,Calm,-,N/A,,Clear,0,2013-03-08 18:53:00
12:53 PM,43.0,26.1,51,29.81,10.0,South,3.5,-,N/A,,Clear,190,2013-03-08 19:53:00
1:53 PM,45.0,24.1,44,29.79,10.0,SW,5.8,-,N/A,,Partly Cloudy,230,2013-03-08 20:53:00
2:53 PM,43.0,24.1,47,29.79,10.0,West,9.2,-,N/A,,Scattered Clouds,270,2013-03-08 21:53:00
3:53 PM,41.0,25.0,53,29.79,10.0,SW,6.9,-,N/A,,Partly Cloudy,220,2013-03-08 22:53:00
4:53 PM,39.9,26.1,58,29.79,10.0,SSW,6.9,-,N/A,,Overcast,210,2013-03-08 23:53:00
5:53 PM,37.0,27.0,67,29.80,10.0,Variable,3.5,-,N/A,,Overcast,0,2013-03-09 00:53:00
6:53 PM,37.9,26.1,62,29.79,10.0,Calm,Calm,-,N/A,,Overcast,0,2013-03-09 01:53:00
7:53 PM,37.0,28.0,70,29.78,10.0,WSW,9.2,-,N/A,,Overcast,250,2013-03-09 02:53:00
8:53 PM,36.0,28.9,76,29.76,10.0,Calm,Calm,-,N/A,,Overcast,0,2013-03-09 03:53:00
9:53 PM,35.1,28.9,78,29.72,10.0,Calm,Calm,-,N/A,,Overcast,0,2013-03-09 04:53:00
10:23 PM,35.6,30.2,81,29.72,6.0,West,3.5,-,0.00,Rain,Light Rain,260,2013-03-09 05:23:00
10:53 PM,34.0,30.9,89,29.70,10.0,SW,3.5,-,0.01,Rain,Light Rain,220,2013-03-09 05:53:00
11:01 PM,33.8,30.2,87,29.70,10.0,Calm,Calm,-,0.00,Rain,Light Rain,0,2013-03-09 06:01:00
11:26 PM,33.8,28.4,81,29.69,10.0,SW,3.5,-,0.00,,Scattered Clouds,220,2013-03-09 06:26:00
11:53 PM,34.0,30.9,89,29.67,10.0,SSW,5.8,-,0.00,,Mostly Cloudy,200,2013-03-09 06:53:00